Погода в Великове

Россия / Владимирская область     56°09′29″N   42°48′40″E
темп.,
°C
ветер,
м/с
пор.,
м/с
влажн.,
%
обл.,
%
осадки,
мм/ч
давл.,
гПа
погр.,
м
5 марта, пт
пт500:00−10сз229471 0.0 100021
03:00−12сз229347 0.0 100221
06:00−13сз23965 0.0 100321
09:00−9зсз36944 0.0 1004233
12:00−4з358753 0.0 1005517
15:00−3з468566 0.3 1006788
18:00−7з359046 0.1 100899
21:00−7сз499237 0.4 1011555
6 марта, сб
сб600:00−14сз339330 0.0 101359
03:00−16зсз239215 0.0 101520
06:00−16з22920 0.0 101520
09:00−12зюз35870 0.0 1016237
12:00−8з358991 0.1 1015574
15:00−7зсз458395 0.2 1014877
18:00−11сз2389100 0.1 101438
21:00−15сз229258 0.1 101420
7 марта, вс
вс700:00−16зюз22950 0.0 101320
03:00−16ююз33960 0.0 101163
06:00−15ю4109521 0.0 1008207
09:00−9ююз6139061 0.1 1004532
12:00−6ююз71392100 0.3 1000828
15:00−5ююз81392100 1.4 9961126
18:00−5ююз61394100 1.1 992934
21:00−6з41289100 1.6 992665
8 марта, пн
пн800:00−11з4118858 0.0 993246
03:00−12юз389139 0.0 995187
06:00−10ююз4995100 0.4 993423
09:00−6юз4894100 1.4 992571
12:00−5зсз4680100 0.3 993844
15:00−7зсз698589 0.3 995877
18:00−9зсз61289100 0.4 998772
21:00−11сз51191100 0.4 1002557
9 марта, вт
вт900:00−13сз4109399 0.1 1005389
03:00−16сз389694 0.1 1007216
06:00−18сз379793 0.0 1010182
09:00−16сз369294 0.1 1012393
12:00−13сз4588100 0.1 1013631
15:00−12сз4687100 0.1 1014744
18:00−16сз3893100 0.1 1015239
21:00−20сз3798100 0.1 1018158